[Iaude] MPEC E67: 2024 DY1 [a=2.75,e=0.60,i=23.0,H=22.0]

mpec at cfa.harvard.edu mpec at cfa.harvard.edu
Tue Mar 5 18:34:57 EST 2024


M.P.E.C. 2024-E67                                 Issued 2024 March 5, 23:33 UT

     The Minor Planet Electronic Circulars contain information on unusual
         minor planets, routine data on comets and natural satellites,
         and occasional editorial announcements.  They are published
    on behalf of Division F of the International Astronomical Union by the
          Minor Planet Center, Smithsonian Astrophysical Observatory,
                          Cambridge, MA 02138, U.S.A.
			  
             Prepared using the Tamkin Foundation Computer Network

                              MPC at CFA.HARVARD.EDU
            URL https://www.minorplanetcenter.net/    ISSN 1523-6714

                                    2024 DY1                                    


Observations:
     K24D01Y*1C2024 02 17.16378407 54 36.382+39 51 25.49         20.38GVEE067G96
     K24D01Y 1C2024 02 17.16942107 54 37.069+39 50 38.44         20.47GVEE067G96
     K24D01Y 1C2024 02 17.17507307 54 37.739+39 49 51.85         20.21GVEE067G96
     K24D01Y  C2024 02 28.26911908 15 05.233+17 15 23.27         20.51GVEE067F51
     K24D01Y 1C2024 03 05.11975608 23 53.844+08 47 11.36         21.17GVEE067G96
     K24D01Y 1C2024 03 05.12642708 23 54.402+08 46 41.74         21.27GVEE067G96
     K24D01Y 1C2024 03 05.13208008 23 54.841+08 46 16.50         20.35GVEE067G96
     K24D01Y 1C2024 03 05.13770708 23 55.273+08 45 51.41         20.28GVEE067G96
     K24D01Y KC2024 03 05.15045608 23 56.274+08 44 53.88         20.69GVEE067I52
     K24D01Y KC2024 03 05.15173208 23 56.364+08 44 48.48         21.21GVEE067I52
     K24D01Y KC2024 03 05.15300508 23 56.454+08 44 42.65         20.83GVEE067I52
     K24D01Y KC2024 03 05.15428408 23 56.548+08 44 37.14         21.54GVEE067I52
     K24D01Y  C2024 03 05.19149408 23 59.347+08 41 49.06         20.9 GVEE067H01
     K24D01Y  C2024 03 05.20390708 24 00.301+08 40 53.41         21.1 GVEE067H01
     K24D01Y  C2024 03 05.20897508 24 00.706+08 40 30.60         21.7 GVEE067H01
     K24D01Y KC2024 03 05.21544 08 24 01.30 +08 40 02.7          21.6 RVEE067691
     K24D01Y  C2024 03 05.21619008 24 01.253+08 39 58.13         21.3 GVEE067H01
     K24D01Y KC2024 03 05.23628 08 24 02.93 +08 38 28.8          21.1 RVEE067691
     K24D01Y KC2024 03 05.25712 08 24 04.58 +08 36 54.9                VEE067691
     K24D01Y KB2024 03 05.82660 08 24 55.258+07 54 59.26         20.3 GXEE067J57
     K24D01Y KB2024 03 05.85756 08 24 57.646+07 52 45.52         20.7 GXEE067J57

Observer details:
691 Steward Observatory, Kitt Peak-Spacewatch.  Observer J. V. Scotti.  0.9-m
    f/3 reflector + CCD.
F51 Pan-STARRS 1, Haleakala.  Observers J. Herman, T. Lowe, P. Minguez, A.
    Schultz, I. Smith.  Measurers K. Chambers, T. de Boer, J. Fairlamb, H.
    Gao, M. Huber, C.-C. Lin, E. Magnier, Y. Ramanjooloo, R. Wainscoat, R.
    Weryk.  1.8-m Ritchey-Chretien + CCD.
G96 Mt. Lemmon Survey.  Observers T. Beuden, J. K. Hogan, G. J. Leonard.
    Measurers T. Beuden, V. F. Carvajal, D. Fay, J. B. Fazekas, D. C. Fuls, A.
    R. Gibbs, A. D. Grauer, H. Groeller, J. K. Hogan, R. A. Kowalski, S. M.
    Larson, G. J. Leonard, D. Rankin, R. L. Seaman, F. C. Shelly, K. W.
    Wierzchos.  1.5-m reflector + 10K CCD.
H01 Magdalena Ridge Observatory, Socorro.  Observers W. H. Ryan, E. V. Ryan.
    Measurer W. H. Ryan.  2.4-m f/8.9 Ritchey-Chretien + CCD.
I52 Steward Observatory, Mt. Lemmon Station.  Observer J. K. Hogan.  Measurers
    T. Beuden, V. F. Carvajal, D. Fay, J. B. Fazekas, D. C. Fuls, A. R. Gibbs,
    A. D. Grauer, H. Groeller, J. K. Hogan, R. A. Kowalski, S. M. Larson, G.
    J. Leonard, D. Rankin, R. L. Seaman, F. C. Shelly, K. W. Wierzchos.  1.0-m
    prime focus + CCD.
J57 Centro Astronomico Alto Turia, Valencia.  Observer A. Fornas.  Measurers
    A. Fornas, G. Fornas, E. Arce, V. Mas.  0.43-m f/6.8 Reflector CDK + CMO.

Orbital elements:
2024 DY1                                                 Earth MOID = 0.1913 AU
Epoch 2024 Mar. 31.0 TT = JDT 2460400.5                 Veres                   
M  15.38507              (2000.0)            P               Q                  
n   0.21629459     Peri.  142.08816     -0.39978149     -0.89540981             
a   2.7485625      Node   329.95054     +0.71584172     -0.17144104             
e   0.5950114      Incl.   23.04258     +0.57249052     -0.41091269             
P   4.56           H   22.05          G   0.15           U   7                  
Residuals in seconds of arc
240217 G96  0.1-  0.3-    240305 G96  0.1-  0.1+    240305 H01  0.2+  0.1+
240217 G96  0.1+  0.2-    240305 I52  0.1+  0.1-    240305 691  0.2-  0.3+
240217 G96  0.1+  0.5+    240305 I52  0.1-  0.2+    240305 H01  0.0   0.0
240228 F51  0.0   0.0     240305 I52  0.2-  0.1+    240305 691  0.2+  0.2-
240305 G96  0.4-  0.6-    240305 I52  0.3-  0.3+    240305 691  0.7+  0.6-
240305 G96  0.1+  0.2-    240305 H01  0.1+  0.0     240305 J57  0.5+  0.1+
240305 G96  0.1+  0.1-    240305 H01  0.0   0.1+    240305 J57  0.0   0.8+

Ephemeris:
2024 DY1                 a,e,i = 2.75, 0.60, 23                  q = 1.1131
Date    TT    R. A. (2000) Decl.     Delta      r    Elong.  Phase     V
2024 02 04    07 04 23.5 +69 23 59   0.2289  1.1292   123.8    46.5    20.9
...
2024 02 19    07 58 34.0 +35 37 34   0.2251  1.1749   142.5    30.8    20.5
...
2024 02 27    08 13 02.9 +19 25 00   0.2605  1.2097   143.6    29.1    20.8
...
2024 03 04    08 22 14.7 +10 13 56   0.3009  1.2398   141.0    30.2    21.2
2024 03 05    08 23 42.5 +08 56 29   0.3085  1.2452   140.4    30.5    21.3
2024 03 06    08 25 09.6 +07 42 47   0.3164  1.2506   139.8    30.8    21.4
...
2024 03 12    08 33 42.6 +01 30 54   0.3679  1.2846   136.2    32.4    21.8
...
2024 03 20    08 45 03.4 -04 18 37   0.4457  1.3337   131.5    34.0    22.3
...
2024 04 04    09 07 00.4 -10 44 29   0.6122  1.4348   123.9    35.3    23.2

M. P. C. Staff               (C) Copyright 2024 MPC           M.P.E.C. 2024-E67





More information about the Iaude mailing list